User: anonymous   Login
Location: Santa Teresa Spring
(37.2333°N, 121.7000°W)
Time: 01:23:53
(UTC-07:00)
Language:

Cosmos 1633 - Orbit

View from above orbital plane
View from above orbital plane
View from above satellite
View from above satellite

Ground track
Ground track

The orbit data is extracted from the following two-line orbital elements,

1 15592U 85020A   15149.28485104  .00003281  00000-0  13447-3 0  9995
2 15592 082.5390 348.4703 0014109 304.4265 108.3658 15.23837870649890
Epoch (UTC): 29 May 2015 06:50:11
Eccentricity: 0.0014109
inclination: 82.5390°
perigee height: 484 km
apogee height: 504 km
right ascension of ascending node: 348.4703°
argument of perigee: 304.4265°
revolutions per day: 15.23837870
mean anomaly at epoch: 108.3658°
orbit number at epoch: 64989

The dashed part of the orbit path shows where the satellite is in the earth's shadow,  

DLR